Retour au catalogue

FENGYUN 1C DEB

ActifSSO
NORAD 31431·DEBRIS·🇨🇳 China

Lancé May 10, 1999 depuis Taiyuan Satellite Launch Center

Loading…

Prochains Passages (prochaines 24 heures)

TLE

FraisSource: Space-Track

Époque: Sep 14, 2026, 02:53 UTC

1 31431U 99025BTT 26257.12057279  .00001286  00000-0  77139-3 0  9999
2 31431  98.5186 133.5445 0134592  39.6740 321.4182 14.04154858983954

Suivez FENGYUN 1C DEB en temps réel avec AllMySat

Download on the App Store